User: anonymous   Login
Location: Carrer del Canonge
(41.4901°N, 2.2931°E)
Time: 10:57:51
(UTC+00:00)
Language:

Cosmos 1174 - Orbit

View from above orbital plane
View from above orbital plane
View from above satellite
View from above satellite

Ground track
Ground track

The orbit data is extracted from the following two-line orbital elements,

1 11765U 80030A   20330.17715736  .00000958  00000-0  53724-4 0  9993
2 11765  66.0858  90.0887 0555796 270.6937  83.0542 14.39924383 87719
Epoch (UTC): 25 November 2020 04:15:06
Eccentricity: 0.0555796
inclination: 66.0858°
perigee height: 362 km
apogee height: 1155 km
right ascension of ascending node: 90.0887°
argument of perigee: 270.6937°
revolutions per day: 14.39924383
mean anomaly at epoch: 83.0542°
orbit number at epoch: 8771

The dashed part of the orbit path shows where the satellite is in the earth's shadow,  

DLR